ASTRA 1M

Last updated on Mon Oct 14 2024 00:02:38 GMT+0000 (Coordinated Universal Time)

1 33436U 08057A 24287.26735493 .00000119 00000+0 00000+0 0 9990 2 33436 0.0715 81.1836 0005187 97.5695 319.0424 1.00274134 58348
UTC large
Height (km)
Speed (km/s)
/
Latitude / Longitude
Inclination (degrees)
Orbital Period (minutes)
Azimuth
Elevation
Range (km)
Doppler Factor

Next 0 passes for location: London (51.5072 / 0.1276)

Sorry there are no passes over London.